TimeEST,TemperatureF,Dew PointF,Humidity,Sea Level PressureIn,VisibilityMPH,Wind Direction,Wind SpeedMPH,Gust SpeedMPH,PrecipitationIn,Events,Conditions,WindDirDegrees,DateUTC
12:51 AM,30.0,23.0,75,30.04,10.0,Calm,Calm,-,N/A,,Clear,0,2012-12-29 05:51:00
1:51 AM,30.9,23.0,72,30.03,10.0,North,4.6,-,N/A,,Clear,10,2012-12-29 06:51:00
2:51 AM,32.0,23.0,69,30.03,10.0,Calm,Calm,-,N/A,,Clear,0,2012-12-29 07:51:00
3:51 AM,32.0,21.9,66,30.01,10.0,NE,6.9,-,N/A,,Clear,50,2012-12-29 08:51:00
4:51 AM,32.0,23.0,69,30.00,10.0,Calm,Calm,-,N/A,,Clear,0,2012-12-29 09:51:00
5:51 AM,32.0,23.0,69,29.96,10.0,East,5.8,-,N/A,,Clear,80,2012-12-29 10:51:00
6:51 AM,32.0,24.1,73,29.94,10.0,ENE,5.8,-,N/A,,Partly Cloudy,70,2012-12-29 11:51:00
7:51 AM,32.0,25.0,75,29.91,10.0,Variable,6.9,-,N/A,,Overcast,0,2012-12-29 12:51:00
8:51 AM,33.1,25.0,72,29.89,10.0,East,4.6,-,N/A,,Overcast,80,2012-12-29 13:51:00
9:51 AM,33.1,26.1,75,29.86,10.0,ENE,9.2,-,N/A,,Overcast,70,2012-12-29 14:51:00
10:51 AM,34.0,28.0,79,29.81,10.0,ENE,8.1,-,N/A,,Overcast,70,2012-12-29 15:51:00
11:36 AM,34.0,28.0,79,29.77,10.0,ENE,9.2,16.1,N/A,,Overcast,70,2012-12-29 16:36:00
11:51 AM,33.1,28.9,85,29.73,2.0,Variable,6.9,16.1,0.00,Snow,Light Snow,0,2012-12-29 16:51:00
11:59 AM,33.1,28.9,85,29.75,1.0,East,11.5,-,0.01,Snow,Light Snow,80,2012-12-29 16:59:00
12:26 PM,32.0,30.0,92,29.71,0.5,East,13.8,18.4,0.02,Fog-Snow,Snow,80,2012-12-29 17:26:00
12:51 PM,32.0,30.9,96,29.67,0.2,East,8.1,-,0.06,Fog-Snow,Snow,90,2012-12-29 17:51:00
1:13 PM,33.1,30.9,92,29.67,1.0,ENE,10.4,-,0.01,Snow,Light Snow,70,2012-12-29 18:13:00
1:51 PM,33.1,32.0,96,29.62,2.0,ENE,10.4,-,0.06,Snow,Light Snow,70,2012-12-29 18:51:00
2:01 PM,34.0,32.0,92,29.64,3.0,ENE,6.9,-,0.00,,Overcast,70,2012-12-29 19:01:00
2:51 PM,34.0,33.1,96,29.60,2.5,NE,6.9,-,0.04,,Overcast,40,2012-12-29 19:51:00
3:51 PM,33.1,30.9,92,29.55,2.5,Variable,6.9,-,0.04,Snow,Light Snow,0,2012-12-29 20:51:00
4:34 PM,32.0,30.9,96,29.55,3.0,North,8.1,-,0.02,Snow,Light Snow,360,2012-12-29 21:34:00
4:51 PM,32.0,30.9,96,29.52,3.0,North,9.2,-,0.02,,Overcast,10,2012-12-29 21:51:00
5:06 PM,32.0,30.0,92,29.53,2.5,NNE,8.1,-,0.01,Snow,Light Snow,20,2012-12-29 22:06:00
5:32 PM,32.0,30.0,92,29.53,3.0,North,9.2,17.3,0.01,Snow,Light Snow,360,2012-12-29 22:32:00
5:47 PM,32.0,30.2,93,29.53,2.5,Variable,5.8,-,0.01,Snow,Light Snow,0,2012-12-29 22:47:00
5:51 PM,32.0,30.0,92,29.51,2.0,Variable,5.8,-,0.02,Snow,Light Snow,0,2012-12-29 22:51:00
6:11 PM,32.0,30.0,92,29.52,1.8,Variable,4.6,-,0.00,Snow,Light Snow,0,2012-12-29 23:11:00
6:20 PM,32.0,30.0,92,29.53,2.5,Calm,Calm,-,0.00,Snow,Light Snow,0,2012-12-29 23:20:00
6:51 PM,30.9,28.9,92,29.50,2.5,Variable,4.6,-,0.01,Snow,Light Snow,0,2012-12-29 23:51:00
7:01 PM,30.9,30.0,96,29.52,3.0,Variable,3.5,-,0.00,Snow,Light Snow,0,2012-12-30 00:01:00
7:12 PM,30.9,28.9,92,29.52,1.8,North,6.9,-,0.00,Snow,Light Snow,10,2012-12-30 00:12:00
7:42 PM,30.9,28.9,92,29.53,3.0,North,4.6,-,0.00,Snow,Light Snow,360,2012-12-30 00:42:00
7:51 PM,30.9,28.9,92,29.52,6.0,NNW,3.5,-,0.00,,Overcast,330,2012-12-30 00:51:00
8:12 PM,30.9,28.9,92,29.53,4.0,North,5.8,-,N/A,,Overcast,360,2012-12-30 01:12:00
8:31 PM,30.9,28.9,92,29.54,6.0,WNW,9.2,-,N/A,,Overcast,300,2012-12-30 01:31:00
8:51 PM,30.9,28.9,92,29.52,3.0,WNW,9.2,-,N/A,,Overcast,300,2012-12-30 01:51:00
8:56 PM,30.0,28.0,92,29.54,1.8,WNW,8.1,-,0.00,Snow,Light Snow,300,2012-12-30 01:56:00
9:26 PM,30.9,28.9,92,29.55,3.0,WNW,8.1,-,0.01,Snow,Light Snow,300,2012-12-30 02:26:00
9:38 PM,30.9,28.0,89,29.56,6.0,NW,10.4,-,0.01,,Overcast,310,2012-12-30 02:38:00
9:51 PM,30.9,28.0,89,29.55,7.0,WNW,6.9,-,0.01,,Overcast,300,2012-12-30 02:51:00
10:36 PM,30.9,27.0,85,29.58,5.0,WNW,9.2,-,0.00,Snow,Light Snow,300,2012-12-30 03:36:00
10:51 PM,30.9,27.0,85,29.57,7.0,NW,11.5,17.3,0.00,,Overcast,310,2012-12-30 03:51:00
11:51 PM,32.0,27.0,82,29.59,10.0,Variable,5.8,-,N/A,,Overcast,0,2012-12-30 04:51:00